Voltar ao catálogo

BREEZE-M DEB

AtivoHEO
NORAD 32496·DEBRIS·🇷🇺 Russia

Lançado Feb 28, 2006 de Baikonur Cosmodrome

Loading…

Próximas Passagens (próximas 24 horas)

TLE

AtualizadoSource: Space-Track

Época: Sep 14, 2026, 04:31 UTC

1 32496U 06006AK  26257.18826873  .00003352  00000-0  29036-2 0  9996
2 32496  51.6928 293.7520 4893977 186.0023 164.8909  5.62781433 47975

Acompanhe BREEZE-M DEB em tempo real com AllMySat

Download on the App Store